Location: Mentone
(34.5413°N, 85.5351°W)
Time: 08:50:13
(UTC-05:00)

S-56A Canister/Altair - Visible Passes

Search period start: 27 May 2015 00:00
Search period end: 06 June 2015 00:00
Orbit: 636 x 2499 km, 38.9° (Epoch: 26 May)

Date Brightness Start Highest point End Pass type
(mag) Time Alt. Az. Time Alt. Az. Time Alt. Az.
27 May 8.9 01:44:09 37° WSW 01:49:33 85° NNW 01:57:38 10° ENE visible
27 May 8.8 03:45:20 10° W 03:55:01 64° N 04:01:19 10° E visible
27 May 10.7 20:57:42 10° SSE 21:16:16 - E 21:04:53 16° SE visible
27 May 9.7 22:57:36 10° SSW 23:13:23 44° ESE 23:21:09 10° ENE visible
28 May 9.1 01:10:27 35° WSW 01:16:49 89° NNW 01:25:31 10° ENE visible
28 May 8.9 03:11:59 10° W 03:22:29 65° N 03:29:16 10° E visible
28 May 10.9 20:26:17 10° SSE 20:32:06 14° SE 20:38:49 10° ESE visible
28 May 9.8 22:24:41 10° SSW 22:38:02 44° SE 22:48:39 10° ENE visible
29 May 9.2 00:30:16 10° WSW 00:44:01 86° SSE 00:53:20 10° ENE visible
29 May 9.1 02:38:34 10° W 02:49:54 67° N 02:57:12 10° ENE visible
29 May 8.3 04:46:20 10° WNW 04:55:08 84° NNE 05:00:54 10° ESE visible
29 May 10.0 21:51:53 10° SSW 22:05:04 40° SE 22:16:02 10° ENE visible
29 May 9.3 23:56:54 10° WSW 00:11:09 81° SSE 00:21:06 10° ENE visible
30 May 9.2 02:05:06 10° W 02:17:14 69° N 02:25:06 10° ENE visible
30 May 8.5 04:13:11 10° WNW 04:22:45 80° NNE 04:28:55 10° ESE visible
30 May 10.1 21:19:12 10° SSW 21:32:04 37° SE 21:43:19 10° E visible
30 May 9.4 23:23:36 10° WSW 23:38:12 77° SSE 23:48:47 10° ENE visible
31 May 9.3 01:31:36 10° W 01:44:28 72° N 01:52:57 10° ENE visible
31 May 8.7 03:39:56 10° WNW 03:50:16 76° NNE 03:56:54 10° E visible
31 May 10.3 20:46:40 10° SSW 20:59:03 33° SE 21:10:27 10° E visible
31 May 9.5 22:50:23 10° SW 23:05:12 72° SSE 23:16:24 10° ENE visible
01 Jun 9.4 00:58:04 10° W 01:11:38 74° N 01:20:46 10° ENE visible
01 Jun 8.9 03:06:36 10° WNW 03:17:43 74° N 03:24:50 10° E visible
01 Jun 10.5 20:14:18 10° S 20:26:02 30° SE 20:37:25 10° E visible
01 Jun 9.6 22:17:15 10° SW 22:32:09 68° SSE 22:43:56 10° ENE visible
02 Jun 9.5 00:24:33 10° W 00:38:44 77° NNW 00:48:31 10° ENE visible
02 Jun 9.1 02:33:12 10° WNW 02:45:04 72° N 02:52:45 10° E visible
02 Jun 8.4 04:40:50 10° WNW 04:49:59 61° SSW 04:56:00 10° SE visible
02 Jun 9.8 21:44:13 10° SW 21:59:03 63° SSE 22:11:22 10° ENE visible
02 Jun 9.6 23:51:04 10° WSW 00:05:44 80° NNW 00:16:13 10° ENE visible
03 Jun 9.2 01:59:44 10° WNW 02:12:21 71° N 02:20:36 10° E visible
03 Jun 8.5 04:07:36 10° WNW 04:17:39 70° SSW 04:24:08 10° SE visible
03 Jun 9.9 21:11:18 10° SW 21:25:56 59° SSE 21:38:44 10° ENE visible
03 Jun 9.6 23:17:37 10° WSW 23:32:40 83° NNW 23:43:51 10° ENE visible
04 Jun 9.4 01:26:13 10° W 01:39:31 71° N 01:48:25 10° E visible
04 Jun 8.6 03:34:19 10° WNW 03:45:13 78° SSW 03:52:11 10° ESE visible
04 Jun 10.0 20:38:31 10° SW 20:52:49 54° SE 21:05:57 10° ENE visible
04 Jun 9.7 22:44:16 10° WSW 22:59:33 87° NNW 23:11:24 10° ENE visible
05 Jun 9.5 00:52:41 10° W 01:06:37 71° N 01:16:09 10° E visible
05 Jun 8.8 03:00:59 10° WNW 03:12:41 84° SSW 03:20:12 10° ESE visible
05 Jun 10.1 20:05:51 10° SSW 20:19:42 50° SE 20:33:05 10° ENE visible
05 Jun 9.8 22:11:00 10° WSW 22:26:22 89° SSE 22:38:53 10° ENE visible
